This demonstration page uses our WeatherBlox Daily Observations layout. Learn more.

Left ArrowRight Arrow

34.16533, -84.80231

Hourly Observations for March 15, 2021

Temp ( °F °C ) Dew Point ( °F °C ) Humidity (%) Winds ( mph kmh ) Pressure ( in mb ) Visibility ( mi km ) Precip ( " mm )
12:53 am 00:53 Mostly Cloudy 61 16.1 55 12.8 81 81 Calm 30.06 1018 10 16 0.00 0.00
1:53 am 01:53 Mostly Clear 60 15.6 53 11.7 78 78 ENE 3 6 30.05 1018 9 14 0.00 0.00
2:53 am 02:53 Clear 58 14.4 52 11.1 81 81 NNE 3 6 30.05 1018 9 14 0.00 0.00
3:53 am 03:53 Cloudy 64 17.8 54 12.2 70 70 E 5 7 30.05 1018 10 16 0.00 0.00
4:53 am 04:53 Clear 65 18.3 52 11.1 63 63 ESE 9 15 30.04 1017 10 16 0.00 0.00
5:53 am 05:53 Mostly Cloudy 65 18.3 49 9.4 56 56 VRB 7 11 30.06 1018 10 16 0.00 0.00
6:53 am 06:53 Clear 64 17.8 47 8.3 54 54 SE 10 17 30.06 1018 10 16 0.00 0.00
7:53 am 07:53 Partly Cloudy 64 17.8 47 8.3 54 54 VRB 7 11 30.08 1019 10 16 0.00 0.00
8:53 am 08:53 Mostly Cloudy 64 17.8 47 8.3 54 54 ESE 8 13 30.10 1019 10 16 0.00 0.00
9:53 am 09:53 Mostly Cloudy 64 17.8 45 7.2 50 50 ESE 10 17 30.11 1020 10 16 0.00 0.00
10:53 am 10:53 Mostly Sunny 64 17.8 43 6.1 46 46 ESE 10 17 30.14 1021 10 16 0.00 0.00
11:53 am 11:53 Sunny 66 18.9 41 5 40 40 SE 14 22 30.11 1020 10 16 0.00 0.00
12:53 pm 12:53 Mostly Cloudy 68 20 41 5 38 38 SE 13 20 30.10 1019 10 16 0.00 0.00
1:53 pm 13:53 Cloudy 67 19.4 42 5.6 41 41 E 12 19 30.09 1019 10 16 0.00 0.00
2:53 pm 14:53 Mostly Cloudy 69 20.6 43 6.1 39 39 E 12 19 30.05 1018 10 16 0.00 0.00
3:53 pm 15:53 Cloudy 68 20 43 6.1 40 40 E 10 17 30.03 1017 10 16 0.00 0.00
4:53 pm 16:53 Cloudy 69 20.6 44 6.7 41 41 ESE 6 9 30.02 1017 10 16 0.00 0.00
5:53 pm 17:53 Cloudy 69 20.6 44 6.7 41 41 ESE 12 19 30.00 1016 10 16 0.00 0.00
6:53 pm 18:53 Mostly Cloudy 69 20.6 44 6.7 41 41 ESE 12 19 29.98 1015 10 16 0.00 0.00
7:53 pm 19:53 Cloudy 68 20 44 6.7 42 42 ESE 12 19 29.99 1016 10 16 0.00 0.00
8:53 pm 20:53 Cloudy 68 20 45 7.2 44 44 ESE 12 19 30.00 1016 10 16 0.00 0.00
9:49 pm 21:49 Cloudy with Nearby Thunderstorms 64 18 46 8 52 52 Calm 30.05 1018 9 14 0.00 0.00
9:53 pm 21:53 Cloudy with Nearby Thunderstorms 65 18.3 48 8.9 54 54 Calm 30.04 1017 9 14 0.00 0.00
10:04 pm 22:04 Cloudy with Light Rain 62 16.7 51 10.6 67 67 NW 3 6 30.08 1019 10 16 0.00 0.00
10:53 pm 22:53 Cloudy 61 16.1 49 9.4 65 65 ENE 7 11 30.04 1017 10 16 0.01 0.25
11:04 pm 23:04 Cloudy with Nearby Thunderstorms 61 16.1 47 8.3 60 60 VRB 3 6 30.07 1018 10 16 0.00 0.00
11:28 pm 23:28 Cloudy with Heavy Rain 57 13.9 51 10.6 81 81 VRB 5 7 30.08 1019 3 5 0.15 3.81
11:53 pm 23:53 Cloudy 56 13.3 49 9.4 77 77 E 6 9 30.06 1018 10 16 0.15 3.81

Powered by AerisWeather